Location: Rathdrum
(47.8130°N, 116.8960°W)
Time: 00:17:15
(UTC-07:00)

Amateur Radio Satellites - All Passes

Search period start: 17 April 2015 23:47
Search period end: 18 April 2015 23:47
Location: Rathdrum, 47.8130°N, 116.8960°W

Satellite Date Start Highest point End Downlink Frequencies (MHz)
Time Altitude Azimuth
QB50P1 17 Apr 23:48:43 23:52:57 57° 101° (E) 23:57:11 145.935-145.965
PHONESAT 2.4 17 Apr 23:49:04 23:52:04 25° 180° (S) 23:55:03 2401.200-2431.200
ESTCUBE 1 17 Apr 23:49:26 23:53:40 38° 263° (W) 23:57:53 437.505/2401.250
Cosmos 2491 17 Apr 23:57:32 00:06:13 80° 97° (E) 00:15:02 435.465 / 435.565
CUBEBUG 1 17 Apr 23:58:24 00:02:21 33° 264° (W) 00:06:17 437.445
BEESAT 18 Apr 00:05:34 00:08:33 17° 59° (ENE) 00:11:40 436.000
SWISSCUBE 18 Apr 00:06:18 00:09:30 18° 60° (ENE) 00:12:49 437.505
YUBILEINY 18 Apr 00:08:41 00:16:53 45° 272° (W) 00:24:55 435.215
BUGSAT 1 18 Apr 00:11:30 00:15:36 70° 102° (ESE) 00:19:42 437.445
QB50P2 18 Apr 00:11:33 00:15:52 82° 285° (WNW) 00:20:10 145.880/145.840
SPROUT 18 Apr 00:16:40 00:20:56 74° 258° (WSW) 00:25:14 437.525
TISAT 1 18 Apr 00:19:35 00:23:47 82° 255° (WSW) 00:28:00 437.305
TIGRISAT 18 Apr 00:25:10 00:29:32 37° 292° (WNW) 00:33:51 435.000
UNISAT 6 18 Apr 00:25:25 00:29:45 36° 292° (WNW) 00:34:02 437.425
POPSAT HIP 1 18 Apr 00:35:13 00:39:22 48° 289° (WNW) 00:43:30 437.405
Cosmos 2504 18 Apr 00:35:50 00:43:35 39° 66° (ENE) 00:50:53 435.465 / 435.565
NANOSAT C BR1 18 Apr 00:36:05 00:40:12 47° 289° (WNW) 00:44:19 145.865
VERMONT LUNAR 18 Apr 00:46:56 00:48:48 14° 200° (SSW) 00:50:37 437.305
O/OREOS (USA 219) 18 Apr 00:55:28 01:00:00 58° 299° (WNW) 01:04:32 437.305
POLYITAN 1 18 Apr 01:01:12 01:04:53 28° 294° (WNW) 01:08:31 437.675
ITUPSAT 1 18 Apr 01:04:44 01:09:23 51° 70° (ENE) 01:14:04 437.325
ANTELSAT 18 Apr 01:08:04 01:11:09 17° 300° (WNW) 01:14:04 437.575/2403.000
RS-15 18 Apr 01:12:56 01:24:20 72° 239° (WSW) 01:36:12 29.354- 29.394
DUCHIFAT 1 18 Apr 01:13:24 01:16:45 22° 296° (WNW) 01:20:02 145.980
QB50P1 18 Apr 01:25:33 01:28:27 18° 298° (WNW) 01:31:15 145.935-145.965
PHONESAT 2.4 18 Apr 01:27:17 01:29:44 17° 197° (SSW) 01:32:09 2401.200-2431.200
AIST 1 18 Apr 01:34:53 01:39:01 46° 94° (E) 01:43:10
BEESAT 18 Apr 01:41:06 01:45:54 74° 258° (WSW) 01:50:42 436.000
SWISSCUBE 18 Apr 01:42:08 01:46:55 68° 257° (WSW) 01:51:43 437.505
BUGSAT 1 18 Apr 01:48:26 01:50:37 14° 299° (WNW) 01:52:41 437.445
QB50P2 18 Apr 01:49:48 01:51:07 11° 302° (WNW) 01:52:15 145.880/145.840
Cosmos 2491 18 Apr 01:57:00 02:04:16 27° 301° (WNW) 02:11:22 435.465 / 435.565
Gurwin Techsat 1B 18 Apr 01:57:17 01:59:29 13° 84° (E) 02:01:59 435.225
STARS 18 Apr 01:59:58 02:03:30 25° 65° (ENE) 02:07:08 437.465
Oscar 19 18 Apr 02:00:59 02:05:59 46° 98° (E) 02:11:00 437.125/150
ITAMSAT 1 18 Apr 02:17:01 02:20:55 22° 91° (E) 02:24:55 435.822/435.867
KKS-1 18 Apr 02:19:51 02:24:11 56° 71° (ENE) 02:28:34 437.445
Cosmos 2504 18 Apr 02:29:15 02:37:22 53° 270° (W) 02:44:49 435.465 / 435.565
GONETS M04 18 Apr 02:33:19 02:39:07 19° 52° (NE) 02:45:15
O/OREOS (USA 219) 18 Apr 02:39:04 02:40:31 11° 322° (NW) 02:41:49 437.305
ITUPSAT 1 18 Apr 02:43:53 02:47:36 21° 269° (W) 02:51:14 437.325
CUSAT 1 18 Apr 03:13:21 03:16:44 15° 57° (ENE) 03:20:48 437.405
AIST 1 18 Apr 03:13:45 03:16:58 19° 293° (WNW) 03:20:06
MOZHAYETS 4 18 Apr 03:22:12 03:25:33 20° 63° (ENE) 03:29:01
RS-15 18 Apr 03:27:15 03:35:03 20° 260° (W) 03:42:20 29.354- 29.394
Gurwin Techsat 1B 18 Apr 03:35:03 03:40:24 85° 104° (ESE) 03:45:44 435.225
STARS 18 Apr 03:35:40 03:39:48 39° 262° (W) 03:43:57 437.465
Oscar 19 18 Apr 03:40:43 03:45:10 29° 297° (WNW) 03:49:32 437.125/150
ITAMSAT 1 18 Apr 03:55:45 04:00:51 57° 290° (WNW) 04:05:54 435.822/435.867
KKS-1 18 Apr 03:58:14 04:01:14 17° 270° (W) 04:04:07 437.445
AUBIESAT-1 18 Apr 04:08:28 04:11:25 17° 53° (NE) 04:14:31 437.475
AO-7 18 Apr 04:26:28 04:34:16 43° 98° (E) 04:42:08 29.400- 29.500
HORYU 2 18 Apr 04:26:38 04:31:08 64° 102° (ESE) 04:35:36 437.375
Cosmos 2504 18 Apr 04:28:03 04:28:47 10° 291° (WNW) 04:28:55 435.465 / 435.565
GONETS M04 18 Apr 04:29:03 04:37:57 73° 78° (ENE) 04:46:47
BEESAT 2 18 Apr 04:33:26 04:36:28 21° 115° (ESE) 04:39:38 435.950
CUBESAT XI-V 18 Apr 04:37:05 04:38:16 11° 57° (ENE) 04:39:41 437.345
DANDE 18 Apr 04:38:00 04:43:47 41° 71° (ENE) 04:51:03 436.750
JAS-2 18 Apr 04:41:59 04:48:52 56° 98° (E) 04:54:54 435.910
BEESAT 3 18 Apr 04:42:28 04:46:00 29° 117° (ESE) 04:49:37 437.485
M-CUBED/EXP-1 PRIME 18 Apr 04:50:56 04:55:19 39° 62° (ENE) 04:59:51 437.505
CUSAT 1 18 Apr 04:54:08 05:00:32 64° 75° (ENE) 05:08:25 437.405
MOZHAYETS 4 18 Apr 04:57:52 05:02:27 56° 261° (W) 05:07:03
Gurwin Techsat 1B 18 Apr 05:16:20 05:19:47 17° 303° (WNW) 05:23:03 435.225
Cosmos 2499 18 Apr 05:22:58 05:30:05 32° 63° (ENE) 05:36:52 435.465 / 435.565
PRISM 18 Apr 05:33:26 05:36:42 23° 65° (ENE) 05:40:03 437.425
ITAMSAT 1 18 Apr 05:38:28 05:39:23 10° 308° (NW) 05:40:03 435.822/435.867
AUBIESAT-1 18 Apr 05:40:53 05:45:36 87° 246° (WSW) 05:50:28 437.475
CUTE-I 18 Apr 05:44:19 05:46:17 12° 84° (E) 05:48:34 437.470
Cubesat XI-IV 18 Apr 05:50:44 05:53:27 14° 86° (E) 05:56:25 437.490
HORYU 2 18 Apr 06:04:18 06:07:21 18° 299° (WNW) 06:10:17 437.375
STRAND 1 18 Apr 06:07:34 06:12:19 41° 67° (ENE) 06:17:07 437.568
BEESAT 2 18 Apr 06:10:14 06:14:18 53° 313° (NW) 06:18:24 435.950
CUBESAT XI-V 18 Apr 06:10:20 06:14:59 73° 75° (ENE) 06:19:37 437.345
AIST 2 18 Apr 06:18:29 06:22:44 73° 125° (SE) 06:27:03 435.215
AO-7 18 Apr 06:19:18 06:27:17 52° 299° (WNW) 06:35:13 29.400- 29.500
BEESAT 3 18 Apr 06:20:03 06:23:56 38° 317° (NW) 06:27:50 437.485
DANDE 18 Apr 06:21:10 06:27:08 45° 265° (W) 06:34:28 436.750
M-CUBED/EXP-1 PRIME 18 Apr 06:26:00 06:30:13 31° 261° (W) 06:34:32 437.505
GONETS M04 18 Apr 06:26:49 06:34:06 29° 279° (W) 06:41:06
JAS-2 18 Apr 06:27:26 06:33:36 33° 300° (WNW) 06:39:05 435.910
CUSAT 1 18 Apr 06:37:26 06:43:08 30° 269° (W) 06:49:37 437.405
PRISM 18 Apr 07:08:02 07:12:00 39° 262° (W) 07:15:57 437.425
Cosmos 2499 18 Apr 07:15:52 07:23:57 63° 267° (W) 07:31:22 435.465 / 435.565
AUBIESAT-1 18 Apr 07:19:05 07:21:10 12° 270° (W) 07:23:02 437.475
CUTE-I 18 Apr 07:21:59 07:27:20 82° 103° (ESE) 07:32:40 437.470
Cubesat XI-IV 18 Apr 07:29:02 07:34:23 87° 289° (WNW) 07:39:44 437.490
O/OREOS (USA 219) 18 Apr 07:45:22 07:46:53 12° 39° (NE) 07:48:33 437.305
STRAND 1 18 Apr 07:47:10 07:51:40 30° 266° (W) 07:56:08 437.568
CUBESAT XI-V 18 Apr 07:50:24 07:53:02 14° 273° (W) 07:55:28 437.345
BEESAT 2 18 Apr 07:51:11 07:53:22 14° 335° (NNW) 07:55:30 435.950
AIST 2 18 Apr 07:58:25 08:01:48 22° 326° (NW) 08:05:10 435.215
BEESAT 3 18 Apr 08:01:40 08:03:06 11° 339° (NNW) 08:04:27 437.485
Cosmos 2491 18 Apr 08:09:15 08:12:17 12° 43° (NE) 08:15:50 435.465 / 435.565
AO-7 18 Apr 08:13:40 08:18:23 16° 321° (NW) 08:22:48 29.400- 29.500
AAUSAT CUBESAT 2 18 Apr 08:42:42 08:43:58 11° 85° (E) 08:45:28 437.432
BRITE-PL 18 Apr 08:46:08 08:50:40 44° 98° (E) 08:55:34 437.365/2234.400
DOVE 4 18 Apr 08:55:44 08:59:51 27° 93° (E) 09:04:13 437.250
ANTELSAT 18 Apr 08:58:29 09:00:41 14° 58° (ENE) 09:03:05 437.575/2403.000
CUTE-I 18 Apr 09:03:18 09:06:50 18° 303° (WNW) 09:10:13 437.470
CINEMA 3 18 Apr 09:05:01 09:08:19 19° 89° (E) 09:11:50 145.822/145.860
Cubesat XI-IV 18 Apr 09:10:38 09:13:49 16° 304° (NW) 09:16:50 437.490
Cosmos 2499 18 Apr 09:12:06 09:15:25 13° 288° (WNW) 09:18:09 435.465 / 435.565
GOMX 1 18 Apr 09:16:18 09:21:04 58° 100° (E) 09:26:09 467.674
HO-68 18 Apr 09:16:25 09:23:21 49° 99° (E) 09:30:16 435.675
O/OREOS (USA 219) 18 Apr 09:22:51 09:27:21 62° 61° (ENE) 09:31:49 437.305
COMPASS 1 18 Apr 09:26:31 09:30:27 36° 97° (E) 09:34:22 437.405
CANX-2 18 Apr 09:32:59 09:37:18 68° 101° (ESE) 09:41:35 2200.000
QB50P2 18 Apr 09:34:13 09:36:29 15° 60° (ENE) 09:38:55 145.880/145.840
SEEDS 18 Apr 09:38:43 09:42:58 60° 100° (E) 09:47:10 437.485
FUNcube-1 18 Apr 09:40:20 09:42:38 14° 86° (E) 09:45:10 145.935
CUTE 1.7 + AOD 2 18 Apr 09:43:26 09:47:46 80° 103° (ESE) 09:52:03 437.475
TIGRISAT 18 Apr 09:50:41 09:54:46 37° 68° (ENE) 09:59:01 435.000
UNISAT 6 18 Apr 09:51:04 09:55:12 38° 68° (ENE) 09:59:29 437.425
POPSAT HIP 1 18 Apr 09:56:29 09:59:44 23° 65° (ENE) 10:03:04 437.405
NANOSAT C BR1 18 Apr 09:57:07 10:00:22 23° 65° (ENE) 10:03:44 145.865
CUBEBUG 2 18 Apr 09:59:34 10:03:47 32° 95° (E) 10:08:05 437.445
UKube-1 18 Apr 10:00:09 10:01:45 12° 87° (E) 10:03:35 .
ZACube-1 18 Apr 10:01:20 10:04:55 23° 91° (E) 10:08:36 437.345
Cosmos 2491 18 Apr 10:03:39 10:12:06 49° 70° (ENE) 10:20:37 435.465 / 435.565
AAUSAT CUBESAT 2 18 Apr 10:16:01 10:20:16 78° 283° (WNW) 10:24:26 437.432
PCSat 18 Apr 10:17:49 10:23:04 55° 118° (ESE) 10:28:23 145.827
Oscar 11 18 Apr 10:19:59 10:24:18 56° 100° (E) 10:28:35 145.826/435.025
POLYITAN 1 18 Apr 10:21:30 10:25:25 39° 69° (ENE) 10:29:24 437.675
BRITE-PL 18 Apr 10:25:08 10:29:04 26° 294° (WNW) 10:33:09 437.365/2234.400
ANTELSAT 18 Apr 10:32:22 10:36:51 86° 256° (WSW) 10:41:29 437.575/2403.000
50 SAT 18 Apr 10:32:35 10:34:36 14° 88° (E) 10:36:47 437.505
DUCHIFAT 1 18 Apr 10:32:46 10:36:47 49° 71° (ENE) 10:40:53 145.980
DOVE 4 18 Apr 10:33:11 10:37:45 43° 290° (WNW) 10:42:33 437.250
DX 1 18 Apr 10:39:36 10:43:30 31° 96° (E) 10:47:25 434.975-435.025
CINEMA 3 18 Apr 10:41:10 10:45:57 63° 287° (WNW) 10:50:52 145.822/145.860
UWE-3 18 Apr 10:43:06 10:47:45 69° 102° (ESE) 10:52:27 435.000/436.395/437.385
QB50P1 18 Apr 10:44:40 10:48:50 67° 74° (ENE) 10:53:04 145.935-145.965
DELFI C3 18 Apr 10:44:50 10:48:57 80° 105° (ESE) 10:52:59 145.870
GOMX 1 18 Apr 10:55:15 10:58:55 22° 296° (WNW) 11:02:39 467.674
COMPASS 1 18 Apr 11:02:30 11:06:00 25° 294° (WNW) 11:09:25 437.405
HUMSAT D 18 Apr 11:03:07 11:07:18 44° 98° (E) 11:11:29 437.325/437.525
O/OREOS (USA 219) 18 Apr 11:03:28 11:06:20 16° 259° (W) 11:09:02 437.305
HO-68 18 Apr 11:04:22 11:11:02 41° 299° (WNW) 11:17:35 435.675
BUGSAT 1 18 Apr 11:04:50 11:08:51 77° 76° (ENE) 11:12:54 437.445
QB50P2 18 Apr 11:07:43 11:11:55 70° 258° (WSW) 11:16:10 145.880/145.840
CANX-2 18 Apr 11:10:11 11:12:47 15° 299° (WNW) 11:15:13 2200.000
BEESAT 2 18 Apr 11:11:49 11:13:21 12° 22° (NNE) 11:14:59 435.950
VELOX 1 18 Apr 11:13:51 11:17:53 34° 96° (E) 11:21:56 145.980
FUNcube-1 18 Apr 11:14:59 11:19:34 75° 286° (WNW) 11:24:10 145.935
SEEDS 18 Apr 11:15:34 11:18:22 17° 298° (WNW) 11:21:02 437.485
YUBILEINY 18 Apr 11:16:42 11:24:59 49° 89° (E) 11:33:22 435.215
BEESAT 3 18 Apr 11:20:44 11:22:53 14° 26° (NNE) 11:25:05 437.485
CUTE 1.7 + AOD 2 18 Apr 11:20:57 11:23:08 14° 300° (WNW) 11:25:10 437.475
TIGRISAT 18 Apr 11:27:51 11:31:39 26° 267° (W) 11:35:29 435.000
AISAT 18 Apr 11:28:10 11:32:29 48° 99° (E) 11:36:48 437.250
UNISAT 6 18 Apr 11:28:22 11:32:08 26° 267° (W) 11:35:56 437.425
POPSAT HIP 1 18 Apr 11:31:26 11:35:26 40° 263° (W) 11:39:26 437.405
NANOSAT C BR1 18 Apr 11:32:04 11:36:02 40° 262° (W) 11:40:02 145.865
UKube-1 18 Apr 11:34:11 11:38:33 78° 286° (WNW) 11:42:52 .
CUBEBUG 2 18 Apr 11:36:13 11:40:29 34° 292° (WNW) 11:44:45 437.445
ZACube-1 18 Apr 11:37:07 11:41:31 46° 290° (WNW) 11:45:54 437.345
ESTCUBE 1 18 Apr 11:38:31 11:42:38 34° 96° (E) 11:46:44 437.505/2401.250
AIST 1 18 Apr 11:39:12 11:42:00 17° 65° (ENE) 11:44:56
CUBEBUG 1 18 Apr 11:43:30 11:47:27 34° 96° (E) 11:51:25 437.445
Oscar 19 18 Apr 11:44:42 11:47:39 16° 57° (ENE) 11:50:47 437.125/150
AAUSAT CUBESAT 2 18 Apr 11:54:33 11:55:12 10° 302° (WNW) 11:55:39 437.432
Oscar 11 18 Apr 11:57:03 12:00:07 18° 298° (WNW) 12:03:04 145.826/435.025
POLYITAN 1 18 Apr 11:58:09 12:01:31 22° 268° (W) 12:04:50 437.675
Cosmos 2491 18 Apr 12:00:46 12:09:00 45° 272° (W) 12:17:07 435.465 / 435.565
SPROUT 18 Apr 12:01:06 12:03:39 16° 89° (E) 12:06:22 437.525
PCSat 18 Apr 12:01:56 12:06:48 32° 318° (NW) 12:11:39 145.827
TISAT 1 18 Apr 12:02:32 12:04:19 13° 87° (E) 12:06:16 437.305
50 SAT 18 Apr 12:05:52 12:09:55 62° 287° (WNW) 12:13:55 437.505
DUCHIFAT 1 18 Apr 12:10:00 12:12:57 18° 270° (W) 12:15:47 145.980
ANTELSAT 18 Apr 12:13:42 12:14:31 10° 277° (W) 12:15:04 437.575/2403.000
DX 1 18 Apr 12:15:54 12:19:43 30° 294° (WNW) 12:23:29 434.975-435.025
UWE-3 18 Apr 12:20:43 12:23:50 18° 299° (WNW) 12:26:51 435.000/436.395/437.385
CINEMA 3 18 Apr 12:21:30 12:22:21 10° 304° (NW) 12:22:59 145.822/145.860
DELFI C3 18 Apr 12:21:47 12:23:33 12° 300° (WNW) 12:25:10 145.870
QB50P1 18 Apr 12:23:05 12:25:15 13° 273° (W) 12:27:15 145.935-145.965
HUMSAT D 18 Apr 12:39:26 12:42:50 22° 296° (WNW) 12:46:08 437.325/437.525
BUGSAT 1 18 Apr 12:43:56 12:44:58 11° 274° (W) 12:45:47 437.445
BEESAT 2 18 Apr 12:48:39 12:52:36 41° 44° (NE) 12:56:31 435.950
VELOX 1 18 Apr 12:50:33 12:54:23 29° 294° (WNW) 12:58:10 145.980
FUNcube-1 18 Apr 12:53:42 12:55:11 11° 303° (WNW) 12:56:27 145.935
HO-68 18 Apr 12:55:10 12:57:00 11° 321° (NW) 12:58:29 435.675
BEESAT 3 18 Apr 12:57:44 13:01:49 55° 48° (NE) 13:05:49 437.485
AIST 2 18 Apr 12:59:10 13:02:42 24° 36° (NE) 13:06:13 435.215
AISAT 18 Apr 13:05:25 13:08:48 21° 297° (WNW) 13:12:08 437.250
SO-50 18 Apr 13:12:30 13:16:15 25° 115° (ESE) 13:20:12 436.795
UKube-1 18 Apr 13:12:51 13:14:00 11° 303° (WNW) 13:14:58 .
YUBILEINY 18 Apr 13:13:34 13:21:59 45° 291° (WNW) 13:30:20 435.215
ESTCUBE 1 18 Apr 13:15:32 13:19:27 29° 294° (WNW) 13:23:16 437.505/2401.250
AIST 1 18 Apr 13:15:54 13:20:03 51° 266° (W) 13:24:11
JAS-2 18 Apr 13:17:24 13:19:40 12° 43° (NE) 13:22:18 435.910
Cosmos 2504 18 Apr 13:18:09 13:25:20 30° 82° (E) 13:32:46 435.465 / 435.565
CUBEBUG 1 18 Apr 13:20:01 13:23:44 28° 294° (WNW) 13:27:24 437.445
Gurwin Techsat 1B 18 Apr 13:20:48 13:25:19 30° 64° (ENE) 13:29:55 435.225
Oscar 19 18 Apr 13:21:12 13:26:21 89° 249° (WSW) 13:31:35 437.125/150
SPROUT 18 Apr 13:35:56 13:40:11 59° 288° (WNW) 13:44:26 437.525
TISAT 1 18 Apr 13:36:26 13:40:40 72° 286° (WNW) 13:44:54 437.305
ITAMSAT 1 18 Apr 13:38:03 13:42:58 46° 68° (ENE) 13:47:57 435.822/435.867
RS-15 18 Apr 13:38:35 13:40:47 11° 94° (E) 13:44:01 29.354- 29.394
BEESAT 18 Apr 13:38:35 13:42:15 22° 91° (E) 13:46:00 436.000
SWISSCUBE 18 Apr 13:39:34 13:43:25 24° 93° (E) 13:47:19 437.505
AO-7 18 Apr 13:39:40 13:45:31 23° 46° (NE) 13:51:36 29.400- 29.500
PCSat 18 Apr 13:49:51 13:52:01 12° 343° (NNW) 13:54:05 145.827
HORYU 2 18 Apr 13:54:36 13:56:33 13° 58° (ENE) 13:58:39 437.375
BEESAT 2 18 Apr 14:27:03 14:30:35 27° 243° (WSW) 14:34:01 435.950
BEESAT 3 18 Apr 14:36:32 14:39:30 19° 246° (WSW) 14:42:21 437.485
AIST 2 18 Apr 14:37:25 14:41:37 59° 237° (WSW) 14:45:44 435.215
ITUPSAT 1 18 Apr 14:39:30 14:44:19 78° 104° (ESE) 14:49:04 437.325
SO-50 18 Apr 14:51:52 14:56:31 55° 314° (NW) 15:01:19 436.795
JAS-2 18 Apr 14:55:46 15:02:56 42° 63° (ENE) 15:10:07 435.910
Gurwin Techsat 1B 18 Apr 15:00:03 15:05:09 45° 262° (W) 15:10:15 435.225
ISS 18 Apr 15:01:23 15:04:08 25° 142° (SE) 15:06:55 145.825
Oscar 19 18 Apr 15:04:04 15:06:35 13° 275° (W) 15:08:49 437.125/150
Cosmos 2504 18 Apr 15:09:17 15:18:09 72° 283° (WNW) 15:27:01 435.465 / 435.565
BEESAT 18 Apr 15:15:47 15:20:25 49° 290° (WNW) 15:24:59 436.000
SWISSCUBE 18 Apr 15:16:57 15:21:30 45° 291° (WNW) 15:26:01 437.505
ITAMSAT 1 18 Apr 15:18:19 15:22:43 27° 267° (W) 15:27:04 435.822/435.867
YUBILEINY 18 Apr 15:19:15 15:21:58 11° 319° (NW) 15:24:09 435.215
STARS 18 Apr 15:21:57 15:25:50 29° 95° (E) 15:29:44 437.465
HORYU 2 18 Apr 15:28:05 15:32:34 89° 75° (ENE) 15:37:06 437.375
AO-7 18 Apr 15:28:56 15:37:11 76° 67° (ENE) 15:45:30 29.400- 29.500
PCSat 18 Apr 15:37:16 15:38:01 10° 9° (N) 15:38:50 145.827
RS-15 18 Apr 15:40:19 15:50:41 55° 115° (ESE) 16:01:22 29.354- 29.394
GONETS M04 18 Apr 15:42:18 15:47:03 17° 74° (ENE) 15:52:19
KKS-1 18 Apr 15:43:55 15:48:24 73° 103° (ESE) 15:52:53 437.445
ITUPSAT 1 18 Apr 16:18:42 16:21:41 16° 301° (WNW) 16:24:30 437.325
SO-50 18 Apr 16:34:59 16:38:08 17° 337° (NNW) 16:41:18 436.795
ISS 18 Apr 16:37:02 16:40:18 71° 340° (NNW) 16:43:35 145.825
JAS-2 18 Apr 16:40:11 16:47:49 54° 263° (W) 16:55:25 435.910
MOZHAYETS 4 18 Apr 16:49:54 16:53:50 27° 93° (E) 16:57:46
STARS 18 Apr 16:58:18 17:02:19 33° 293° (WNW) 17:06:18 437.465
Cosmos 2504 18 Apr 17:07:13 17:13:28 20° 307° (NW) 17:19:19 435.465 / 435.565
CUTE-I 18 Apr 17:08:28 17:13:00 30° 64° (ENE) 17:17:38 437.470
HORYU 2 18 Apr 17:08:35 17:09:59 11° 275° (W) 17:11:08 437.375
Cubesat XI-IV 18 Apr 17:15:24 17:20:08 34° 65° (ENE) 17:24:57 437.490
PCSat 18 Apr 17:19:21 17:23:34 23° 34° (NE) 17:27:52 145.827
KKS-1 18 Apr 17:21:49 17:24:34 16° 300° (WNW) 17:27:10 437.445
AO-7 18 Apr 17:23:57 17:30:53 28° 269° (W) 17:37:37 29.400- 29.500
GONETS M04 18 Apr 17:33:47 17:42:29 74° 95° (E) 17:51:18
RS-15 18 Apr 17:52:26 18:03:10 57° 322° (NW) 18:14:14 29.354- 29.394
DANDE 18 Apr 17:57:36 17:59:42 18° 87° (E) 18:02:14 436.750
Cosmos 2499 18 Apr 18:04:14 18:10:41 24° 80° (E) 18:17:24 435.465 / 435.565
CUBESAT XI-V 18 Apr 18:05:06 18:07:30 14° 87° (E) 18:10:05 437.345
M-CUBED/EXP-1 PRIME 18 Apr 18:05:22 18:08:14 17° 93° (E) 18:11:05 437.505
HO-68 18 Apr 18:05:47 18:08:56 14° 43° (NE) 18:12:23 435.675
CUSAT 1 18 Apr 18:08:36 18:11:33 37° 93° (E) 18:15:19 437.405
ISS 18 Apr 18:13:51 18:16:58 40° 359° (N) 18:20:05 145.825
SO-50 18 Apr 18:19:18 18:20:41 11° 1° (N) 18:22:05 436.795
MOZHAYETS 4 18 Apr 18:26:53 18:31:10 37° 292° (WNW) 18:35:23
JAS-2 18 Apr 18:32:39 18:34:47 11° 284° (WNW) 18:36:18 435.910
PRISM 18 Apr 18:47:29 18:50:40 21° 93° (E) 18:53:52 437.425
CUTE-I 18 Apr 18:47:50 18:52:56 45° 262° (W) 18:58:03 437.470
AUBIESAT-1 18 Apr 18:54:13 18:58:32 44° 103° (ESE) 19:02:32 437.475
GOMX 1 18 Apr 18:54:20 18:55:14 11° 57° (ENE) 18:56:20 467.674
Cubesat XI-IV 18 Apr 18:55:12 19:00:13 39° 263° (W) 19:05:11 437.490
CANX-2 18 Apr 18:57:37 18:58:05 10° 57° (ENE) 18:58:44 2200.000
PCSat 18 Apr 19:02:18 19:07:46 90° 273° (W) 19:13:12 145.827
CUTE 1.7 + AOD 2 18 Apr 19:06:56 19:08:22 12° 59° (ENE) 19:09:59 437.475
GONETS M04 18 Apr 19:32:47 19:40:20 30° 299° (WNW) 19:47:45
AAUSAT CUBESAT 2 18 Apr 19:36:55 19:39:01 14° 61° (ENE) 19:41:16 437.432
M-CUBED/EXP-1 PRIME 18 Apr 19:39:04 19:43:37 60° 294° (WNW) 19:47:47 437.505
DANDE 18 Apr 19:40:13 19:42:47 23° 296° (WNW) 19:45:52 436.750
CUBESAT XI-V 18 Apr 19:40:57 19:45:34 72° 285° (WNW) 19:50:07 437.345
HO-68 18 Apr 19:48:20 19:55:12 52° 64° (ENE) 20:02:09 435.675
ISS 18 Apr 19:50:23 19:53:39 69° 20° (NNE) 19:56:54 145.825
CUSAT 1 18 Apr 19:52:38 19:54:49 15° 303° (WNW) 19:57:14 437.405
STRAND 1 18 Apr 19:53:15 19:58:22 71° 103° (ESE) 20:03:27 437.568
Cosmos 2499 18 Apr 19:54:03 20:02:58 86° 280° (W) 20:11:47 435.465 / 435.565
SO-50 18 Apr 19:59:47 20:03:09 18° 25° (NNE) 20:06:37 436.795
BRITE-PL 18 Apr 20:01:11 20:05:18 69° 73° (ENE) 20:09:29 437.365/2234.400
DOVE 4 18 Apr 20:05:22 20:09:08 34° 68° (ENE) 20:13:05 437.250
RS-15 18 Apr 20:08:41 20:18:29 34° 354° (N) 20:28:37 29.354- 29.394
CINEMA 3 18 Apr 20:10:39 20:13:55 22° 64° (ENE) 20:17:23 145.822/145.860
UWE-3 18 Apr 20:10:48 20:12:05 11° 57° (ENE) 20:13:33 435.000/436.395/437.385
COMPASS 1 18 Apr 20:21:00 20:24:57 39° 70° (ENE) 20:28:57 437.405
PRISM 18 Apr 20:22:27 20:26:19 39° 291° (WNW) 20:30:07 437.425
GOMX 1 18 Apr 20:28:34 20:32:42 85° 76° (ENE) 20:37:00 467.674
CANX-2 18 Apr 20:29:01 20:33:18 75° 75° (ENE) 20:37:38 2200.000
AUBIESAT-1 18 Apr 20:29:22 20:33:05 25° 303° (WNW) 20:36:31 437.475
SEEDS 18 Apr 20:33:53 20:38:06 65° 74° (ENE) 20:42:22 437.485
CUTE 1.7 + AOD 2 18 Apr 20:39:22 20:43:40 87° 76° (ENE) 20:48:00 437.475
FUNcube-1 18 Apr 20:39:44 20:42:26 17° 61° (ENE) 20:45:19 145.935
VERMONT LUNAR 18 Apr 20:42:16 20:44:25 16° 163° (SSE) 20:46:35 437.305
PCSat 18 Apr 20:47:19 20:50:31 15° 254° (WSW) 20:53:27 145.827
UKube-1 18 Apr 20:57:59 21:00:49 18° 61° (ENE) 21:03:46 .
ZACube-1 18 Apr 21:00:53 21:04:26 26° 65° (ENE) 21:08:07 437.345
CUBEBUG 2 18 Apr 21:01:22 21:05:19 37° 69° (ENE) 21:09:27 437.445
AAUSAT CUBESAT 2 18 Apr 21:09:54 21:14:08 75° 259° (WSW) 21:18:23 437.432
M-CUBED/EXP-1 PRIME 18 Apr 21:16:30 21:17:32 11° 313° (NW) 21:18:23 437.505
Oscar 11 18 Apr 21:17:51 21:22:09 66° 74° (ENE) 21:26:31 145.826/435.025
CUBESAT XI-V 18 Apr 21:21:05 21:22:14 11° 304° (NW) 21:23:12 437.345
50 SAT 18 Apr 21:21:59 21:24:03 14° 61° (ENE) 21:26:17 437.505
YUBILEINY 18 Apr 21:22:25 21:29:47 29° 61° (ENE) 21:37:15 435.215
ISS 18 Apr 21:27:02 21:29:50 26° 218° (SW) 21:32:35 145.825
PHONESAT 2.4 18 Apr 21:31:58 21:34:15 16° 162° (SSE) 21:36:33 2401.200-2431.200
STRAND 1 18 Apr 21:33:29 21:37:05 19° 301° (WNW) 21:40:33 437.568
DELFI C3 18 Apr 21:35:28 21:39:33 77° 76° (ENE) 21:43:40 145.870
HO-68 18 Apr 21:36:35 21:43:11 37° 265° (W) 21:49:46 435.675
DX 1 18 Apr 21:38:24 21:42:29 43° 69° (ENE) 21:46:37 434.975-435.025
SO-50 18 Apr 21:39:46 21:44:42 61° 47° (NE) 21:49:37 436.795
BRITE-PL 18 Apr 21:42:45 21:44:29 12° 274° (W) 21:46:01 437.365/2234.400
DOVE 4 18 Apr 21:43:32 21:47:03 25° 268° (W) 21:50:36 437.250
UWE-3 18 Apr 21:43:37 21:47:54 82° 75° (ENE) 21:52:21 435.000/436.395/437.385
CINEMA 3 18 Apr 21:46:51 21:50:54 43° 263° (W) 21:55:08 145.822/145.860
Cosmos 2499 18 Apr 21:50:37 21:57:34 24° 303° (WNW) 22:04:09 435.465 / 435.565
COMPASS 1 18 Apr 21:57:25 22:00:49 22° 268° (W) 22:04:09 437.405
HUMSAT D 18 Apr 21:58:13 22:02:15 48° 71° (ENE) 22:06:23 437.325/437.525
CANX-2 18 Apr 22:07:54 22:09:51 12° 274° (W) 22:11:35 2200.000
SEEDS 18 Apr 22:12:01 22:14:26 14° 273° (W) 22:16:40 437.485
FUNcube-1 18 Apr 22:14:06 22:18:21 62° 259° (W) 22:22:43 145.935
VELOX 1 18 Apr 22:14:43 22:18:55 46° 70° (ENE) 22:23:11 145.980
VERMONT LUNAR 18 Apr 22:18:35 22:21:21 24° 179° (S) 22:24:08 437.305
CUTE 1.7 + AOD 2 18 Apr 22:19:17 22:20:19 11° 275° (W) 22:21:05 437.475
ANTELSAT 18 Apr 22:21:59 22:25:02 17° 88° (E) 22:28:14 437.575/2403.000
RS-15 18 Apr 22:23:54 22:34:29 43° 26° (NNE) 22:45:36 29.354- 29.394
AISAT 18 Apr 22:29:15 22:33:37 67° 73° (ENE) 22:38:00 437.250
UKube-1 18 Apr 22:32:20 22:36:35 58° 259° (W) 22:40:52 .
ZACube-1 18 Apr 22:36:42 22:40:41 36° 264° (W) 22:44:45 437.345
CUBEBUG 2 18 Apr 22:38:37 22:42:11 24° 268° (W) 22:45:47 437.445
ESTCUBE 1 18 Apr 22:41:20 22:45:41 48° 70° (ENE) 22:50:04 437.505/2401.250
CUBEBUG 1 18 Apr 22:42:53 22:46:59 43° 70° (ENE) 22:51:08 437.445
QB50P2 18 Apr 22:50:51 22:53:21 15° 89° (E) 22:56:01 145.880/145.840
50 SAT 18 Apr 22:54:28 22:58:26 66° 258° (WSW) 23:02:27 437.505
Oscar 11 18 Apr 22:56:24 22:58:52 14° 273° (W) 23:01:10 145.826/435.025
TISAT 1 18 Apr 22:58:07 23:00:38 16° 61° (ENE) 23:03:17 437.305
SPROUT 18 Apr 22:58:44 23:01:45 20° 63° (ENE) 23:04:54 437.525
Cosmos 2504 18 Apr 23:07:03 23:10:50 14° 46° (NE) 23:14:56 435.465 / 435.565
PHONESAT 2.4 18 Apr 23:08:54 23:11:54 25° 178° (S) 23:14:53 2401.200-2431.200
Cosmos 2491 18 Apr 23:09:10 23:17:20 49° 89° (E) 23:25:39 435.465 / 435.565
POPSAT HIP 1 18 Apr 23:13:22 23:16:54 25° 93° (E) 23:20:30 437.405
NANOSAT C BR1 18 Apr 23:13:44 23:17:16 25° 94° (E) 23:20:51 145.865
DELFI C3 18 Apr 23:14:02 23:15:19 11° 274° (W) 23:16:25 145.870
TIGRISAT 18 Apr 23:15:07 23:19:45 51° 99° (E) 23:24:21 435.000
DX 1 18 Apr 23:15:34 23:18:57 22° 268° (W) 23:22:17 434.975-435.025
UNISAT 6 18 Apr 23:15:50 23:20:29 54° 99° (E) 23:25:07 437.425
YUBILEINY 18 Apr 23:18:50 23:27:37 75° 265° (W) 23:36:16 435.215
SO-50 18 Apr 23:20:58 23:24:56 24° 246° (WSW) 23:28:46 436.795
UWE-3 18 Apr 23:23:40 23:25:12 11° 276° (W) 23:26:30 435.000/436.395/437.385
HUMSAT D 18 Apr 23:35:20 23:38:20 18° 270° (W) 23:41:15 437.325/437.525
O/OREOS (USA 219) 18 Apr 23:38:34 23:42:46 37° 108° (ESE) 23:47:00 437.305
